Tracking 29892 objects as of 21-Nov-2024
HD Live streaming from Space Station
objects crossing your sky now

STARLINK-5114

Track STARLINK-5114 now!
10-day predictions
STARLINK-5114 is classified as:


NORAD ID: 54003
Int'l Code: 2022-125AR
Perigee: 545.8 km
Apogee: 547.9 km
Inclination: 53.2 °
Period: 95.4 minutes
Semi major axis: 6917 km
RCS: Unknown
Launch date: October 5, 2022
Source: United States (US)
Launch site: AIR FORCE WESTERN TEST RANGE (AFWTR)
Your satellite tracking list
Your tracking list is empty




NASA's NSSDC Master Catalog

Two Line Element Set (TLE):
1 54003U 22125AR  24325.59813321  .00001814  00000-0  13204-3 0  9999
2 54003  53.2142 182.2013 0001488  79.5008 280.6152 15.08842983117942
Source of the keplerian elements: AFSPC